Dewpoint
73 69 69 71 69 69 69 70 73 73 73 74 74 74 74 77 73 74 75 72 76 73
72 72 70 72 72 71 73 71 73 73 73 74 74 74 75 76 74 75 74 74 75 72
71 72 72 72 72 72 73 73 73 72 73 73 74 74 75 74 73 74 71 69 72 73
71 71 72 71 72 73 73 72 72 72 72 73 72 73 75 73 74 73 74 72 72 72
71 71 71 71 72 72 73 73 73 73 72 72 72 73 73 71 71 72 70 70 73 72
71 71 71 71 72 72 72 72 72 73 73 73 72 73 72 72 71 71 72 72 72 71
71 71 71 72 73 73 73 73 72 73 73 73 73 72 72 72 73 73 72 73 72 72
72 73 73 73 73 73 73 73 74 74 73 73 73 70 72 72 71 72 72 72 72 73
71 71 71 72 73 73 73 73 74 73 73 72 68 61 62 67 71 71 72 72 73 73
69 69 70 71 71 71 72 72 71 71 71 69 68 60 62 66 71 71 71 70 72 72
68 68 71 70 69 70 70 69 69 69 69 68 64 59 61 67 69 68 68 67 68 69
68 67 68 68 68 69 68 67 67 67 67 66 64 57 59 65 66 65 65 64 62 64
67 67 67 67 66 66 64 62 62 61 60 58 61 56 56 63 66 64 62 60 60 57
68 67 66 66 64 62 60 59 58 58 58 58 57 58 55 57 66 62 60 58 58 56
Lifted_Index
-4 -4 -3 -3 -4 -4 -4 -4 -4 -4 -4 -5 -5 -5 -5 -5 -5 -5 -5 -5 -5 -5
-4 -4 -4 -4 -4 -4 -4 -4 -4 -4 -4 -5 -5 -5 -5 -5 -5 -5 -5 -5 -5 -5
-4 -4 -4 -4 -4 -4 -4 -4 -4 -4 -4 -4 -4 -4 -4 -4 -4 -4 -4 -4 -4 -5
-4 -4 -4 -4 -4 -4 -4 -4 -4 -3 -4 -4 -4 -4 -4 -4 -4 -4 -4 -4 -4 -4
-4 -4 -4 -4 -4 -4 -4 -4 -4 -3 -3 -4 -4 -4 -4 -4 -4 -4 -3 -3 -4 -4
-4 -4 -4 -4 -4 -4 -4 -4 -4 -4 -4 -4 -4 -4 -4 -4 -4 -4 -4 -4 -4 -4
-4 -4 -4 -4 -4 -4 -4 -4 -4 -3 -4 -4 -4 -3 -3 -3 -4 -4 -4 -4 -4 -4
-3 -3 -4 -4 -4 -4 -3 -3 -3 -3 -3 -3 -3 -2 -2 -2 -3 -3 -3 -4 -4 -4
-3 -2 -3 -3 -3 -3 -3 -3 -3 -3 -3 -2 -2 -2 -2 -2 -2 -2 -3 -3 -4 -4
-1 -1 -2 -3 -3 -3 -3 -3 -2 -2 -2 -1 -1 -1 -1 -1 -1 -2 -2 -2 -3 -3
-0 -1 -1 -2 -1 -1 -1 -1 -2 -1 -1 -1 -1 -1 -1 -1 -1 -1 -1 -1 -1 -2
0 -0 -0 -1 -0 -0 -0 -1 -1 -1 -1 -1 -1 -1 -1 -0 -0 -0 0 -0 -0 -0
0 0 0 0 0 0 -0 -0 -0 -0 -0 -0 -0 0 0 -0 0 0 0 0 0 0
0 0 0 0 0 0 0 0 -0 -0 -0 0 0 0 0 0 1 1 1 1 1 1